Regional Weather Roundup
Issued by NWS

Home | Current Version | Previous Version | Text Only | Print | Product List | Glossary On
Versions: 1 2 3 4 5 6 7 8 9 10 11 12 13 14 15 16 17 18 19 20 21 22 23 24 25 26 27 28 29 30 31 32 33 34 35 36 37 38 39 40 41 42 43 44 45 46 47 48 49 50
000
ASUS42 KFFC 252010
RWRGA
WEATHER ROUNDUP FOR GEORGIA
NATIONAL WEATHER SERVICE PEACHTREE CITY GA
400 PM EDT THU MAY 25 2017

NOTE: "FAIR" INDICATES FEW OR NO CLOUDS BELOW 12,000 FEET WITH NO
SIGNIFICANT WEATHER AND/OR OBSTRUCTIONS TO VISIBILITY.

* = USE WITH CAUTION. THE STATIONS MARKED WITH AN ASTERISK MAY NOT
REPORT WEATHER SUCH AS PRECIPITATION, FOG, OR THUNDER AND ARE NOT
QUALITY CONTROLLED BY NWS.

THE REMARK "TC" DENOTES TEMPERATURE READING IN DEGREES CELSIUS.

GAZ001>058-252100-
NORTH GEORGIA

CITY           SKY/WX    TMP DP  RH WIND       PRES   REMARKS
ATLANTA        MOSUNNY   72  50  45 W14G24    29.80F
ATHENS         CLOUDY    70  51  51 W12G23    29.77R
CHAMBLEE       MOSUNNY   72  47  40 W18       29.79S
PEACHTREE CITY MOSUNNY   73  48  41 W8G20     29.82S
ROME           MOSUNNY   73  52  47 W14G21    29.78F
WEST ATLANTA   MOSUNNY   72  50  45 W12G25    29.80F
GAINESVILLE    CLOUDY    67  50  54 W18G26    29.79R


CITY           SKY/WX    TMP DP  RH WIND       PRES   REMARKS
DALTON*        PTSUNNY   70  50  49 W9G20     29.77F
LAWRENCEVILLE* PTSUNNY   70  50  49 W17G29    29.79S
MARIETTA       PTSUNNY   71  48  44 W16G28    29.79F
KENNESAW*      PTSUNNY   70  50  49 W17G28    29.80F
CANTON*        PTSUNNY   68  43  40 W10       29.80S
$$

GAZ059>098-102>109-252100-
CENTRAL GEORGIA

CITY           SKY/WX    TMP DP  RH WIND       PRES   REMARKS
AUGUSTA-BUSH   MOSUNNY   77  52  41 W18G26    29.74F
AUGUSTA-DANIEL MOSUNNY   75  49  39 SW15G26   29.75F
COLUMBUS       MOSUNNY   75  49  39 W10       29.83S
MACON          MOSUNNY   75  48  38 W18G25    29.81S
ROBINS AFB     MOSUNNY   76  50  39 W16G22    29.80F


CITY           SKY/WX    TMP DP  RH WIND       PRES   REMARKS
LAGRANGE*      MOSUNNY   73  55  52 W9G21     29.83S
SYLVANIA*      MOSUNNY   75  55  49 W15G22    29.79S
MILLEDGEVILLE* MOSUNNY   73  55  53 W7G17     29.79F
$$

GAZ099>101-110>166-252100-
SOUTH GEORGIA

CITY           SKY/WX    TMP DP  RH WIND       PRES   REMARKS
SAVANNAH       MOSUNNY   81  50  33 W20       29.78S
VALDOSTA       NOT AVBL
ALMA           MOSUNNY   78  49  35 W13G30    29.82F
ST SIMONS      SUNNY     81  48  31 W16G24    29.79F
FT STEWART     PTSUNNY   76  50  40 W18G28    29.77S
ALBANY         PTSUNNY   78  51  38 W15G23    29.85F
HUNTER AFB     SUNNY     78  59  51 W14G29    29.75F
MOODY AFB      MOSUNNY   78  49  35 NW14G20   29.82F
BRUNSWICK      SUNNY     81  54  39 W16G24    29.80F


CITY           SKY/WX    TMP DP  RH WIND       PRES   REMARKS
BAINBRIDGE*    SUNNY     77  50  38 W8G14     29.85F
MOULTRIE*      SUNNY     77  50  38 W9G16     29.85F
VIDALIA*       MOSUNNY   75  54  46 W12G17    29.81F
WAYCROSS*      MOSUNNY   82  55  39 NW14G24   29.82S
DOUGLAS*       SUNNY     77  48  36 W14       29.84F
$$




USA.gov is the U.S. government's official web portal to all federal, state and local government web resources and services.